Weather History for Mt. Clemens, MI

Change the Weather History Date:

Wednesday, April 3, 2013

  Actual Average Record
Temperature  
Mean Temperature 32 °F -  
Max Temperature 40 °F 49 °F 75 °F (1999)
Min Temperature 24 °F 33 °F 14 °F (1954)
Degree Days  
Heating Degree Days 34    
Moisture  
Dew Point 13 °F    
Average Humidity 48    
Maximum Humidity 67    
Minimum Humidity 29    
Precipitation  
Precipitation 0.00 in - - ()
Sea Level Pressure  
Sea Level Pressure 30.37 in    
Wind  
Wind Speed 9 mph (WNW)    
Max Wind Speed 18 mph    
Max Gust Speed 30 mph    
Visibility 10 miles    
Events      
Averages and records for this station are not official NWS values.
T = Trace of Precipitation, MM = Missing Value Source: NWS Daily Summary

Daily Weather History Graph

Daily Weather History Graph

Search for Another Location

Airport:

Trip Planner

Search our weather history database for the weather conditions in past years. The results will help you decide how hot, cold, wet, or windy it might be!

Date:

Astronomy

Apr. 03, 2013 Rise Set
Actual Time 7:09 AM EDT 7:59 PM EDT
Civil Twilight 6:41 AM EDT 8:28 PM EDT
Nautical Twilight 6:07 AM EDT 9:02 PM EDT
Astronomical Twilight 5:32 AM EDT 9:38 PM EDT
Moon 2:58 AM EDT (4/3) 1:02 PM EDT (4/3)
Length of Visible Light 13h 47m
Length of Day
12h 50m
Last Quarter, 45% of the Moon is Illuminated
Apr 3
Last Quarter
Apr 10
New
Apr 18
First Quarter
Apr 25
Full
May 2
Last Quarter

Hourly Weather History & Observations

Time (EDT) Temp. Windchill Dew Point Humidity Pressure Visibility Wind Dir Wind Speed Gust Speed Precip Events Conditions
12:55 AM 28.0 °F 21.7 °F 9.3 °F 45% 30.26 in 10.0 mi NW 5.8 mph - N/A   Clear
1:55 AM 27.5 °F 22.2 °F 9.7 °F 47% 30.26 in 10.0 mi WNW 4.6 mph - N/A   Clear
2:55 AM 26.2 °F 19.6 °F 10.6 °F 52% 30.26 in 10.0 mi WSW 5.8 mph - N/A   Clear
3:55 AM 25.5 °F 18.7 °F 11.3 °F 55% 30.27 in 10.0 mi WSW 5.8 mph - N/A   Clear
4:55 AM 25.0 °F 17.1 °F 12.6 °F 59% 30.28 in 10.0 mi WNW 6.9 mph - N/A   Clear
5:55 AM 24.6 °F 18.8 °F 12.9 °F 61% 30.30 in 10.0 mi WNW 4.6 mph - N/A   Clear
6:55 AM 24.3 °F 16.3 °F 13.8 °F 64% 30.32 in 10.0 mi WNW 6.9 mph - N/A   Clear
7:55 AM 25.3 °F 15.3 °F 12.4 °F 58% 30.35 in 10.0 mi NW 10.4 mph - N/A   Clear
8:55 AM 28.2 °F 18.9 °F 13.1 °F 53% 30.36 in 10.0 mi NW 10.4 mph - N/A   Clear
9:55 AM 31.1 °F 20.9 °F 12.9 °F 47% 30.38 in 10.0 mi NW 13.8 mph 20.7 mph N/A   Partly Cloudy
10:52 AM 32.0 °F 20.8 °F 14.0 °F 48% 30.40 in 10.0 mi NW 17.3 mph - N/A   Scattered Clouds
10:55 AM 32.4 °F 20.9 °F 14.0 °F 47% 30.41 in 10.0 mi NNW 18.4 mph - 0.00 in   Partly Cloudy
11:04 AM 32.0 °F 20.5 °F 12.2 °F 44% 30.41 in 10.0 mi NW 18.4 mph 29.9 mph N/A   Partly Cloudy
11:55 AM 33.8 °F 23.2 °F 9.9 °F 37% 30.43 in 10.0 mi NW 17.3 mph 21.9 mph 0.00 in   Mostly Cloudy
12:55 PM 35.8 °F 26.9 °F 8.2 °F 32% 30.44 in 10.0 mi NNW 13.8 mph 19.6 mph N/A   Scattered Clouds
1:56 PM 37.4 °F 28.2 °F 8.6 °F 30% 30.44 in 10.0 mi NW 16.1 mph - N/A   Partly Cloudy
2:55 PM 37.8 °F 31.3 °F 10.2 °F 32% 30.43 in 10.0 mi NNW 9.2 mph - N/A   Partly Cloudy
3:55 PM 39.0 °F 31.4 °F 10.6 °F 31% 30.42 in 10.0 mi North 12.7 mph 17.3 mph N/A   Partly Cloudy
4:55 PM 39.0 °F 35.7 °F 11.3 °F 32% 30.42 in 10.0 mi NNW 4.6 mph 16.1 mph N/A   Partly Cloudy
5:55 PM 39.2 °F 35.0 °F 9.3 °F 29% 30.42 in 10.0 mi NNW 5.8 mph - N/A   Partly Cloudy
6:55 PM 37.6 °F 31.0 °F 15.3 °F 40% 30.44 in 10.0 mi South 9.2 mph - N/A   Partly Cloudy
7:55 PM 30.9 °F 23.5 °F 15.8 °F 54% 30.43 in 10.0 mi South 8.1 mph - N/A   Clear
8:55 PM 30.4 °F 24.5 °F 16.3 °F 56% 30.40 in 10.0 mi SSE 5.8 mph - N/A   Clear
9:55 PM 30.0 °F 26.5 °F 16.9 °F 58% 30.40 in 10.0 mi South 3.5 mph - N/A   Clear
10:55 PM 28.9 °F 21.1 °F 19.2 °F 67% 30.40 in 10.0 mi SSW 8.1 mph - N/A   Clear
11:55 PM 28.4 °F 21.2 °F 16.9 °F 62% 30.39 in 10.0 mi SW 6.9 mph - N/A   Clear